CW4114 Weather Reports


time (UTC)temp
F
wind
direction
speed
knots
gust
knots
rain 1hr
in
rain 24hr
in
rain mn
in
humidity
%
barometer
mb
20260904215558 68 103 1.7 4.3 0.00 0.03 0.03 91 1014.0
20260904215058 69 51 2.6 4.3 0.00 0.03 0.03 91 1014.0
20260904214559 69 80 1.7 3.5 0.00 0.03 0.03 90 1014.0
20260904214057 69 51 1.7 3.5 0.00 0.03 0.03 89 1014.0
20260904213558 69 97 1.7 5.2 0.00 0.03 0.03 89 1014.1
20260904213057 69 89 1.7 5.2 0.00 0.03 0.03 88 1013.9
20260904212556 69 95 2.6 4.3 0.00 0.03 0.03 86 1013.9
20260904212055 69 90 1.7 4.3 0.00 0.03 0.03 84 1013.9
20260904211556 70 89 2.6 4.3 0.00 0.03 0.03 82 1014.0
20260904211057 70 61 1.7 3.5 0.00 0.03 0.03 82 1014.0
20260904210556 70 78 1.7 0.0 0.00 0.03 0.03 82 1014.0
20260904205702 70 90 1.7 4.3 0.00 0.03 0.03 82 1013.9
20260904205202 70 111 1.7 4.3 0.00 0.03 0.03 81 1013.9
20260904204934 70 95 1.7 4.3 0.00 0.03 0.03 81 1013.9
20260904204203 70 138 0.9 4.3 0.00 0.03 0.03 83 1013.9
20260904203702 70 145 2.6 4.3 0.00 0.03 0.03 83 1014.0
20260904203202 70 104 2.6 5.2 0.00 0.03 0.03 83 1014.1
20260904202704 69 92 3.5 5.2 0.00 0.03 0.03 83 1014.0
20260904202202 69 89 1.7 5.2 0.00 0.03 0.03 83 1014.2
20260904201935 69 92 1.7 5.2 0.00 0.03 0.03 83 1014.1
20260904201600 70 179 2.6 5.2 0.00 0.03 0.03 85 1014.2
20260904200741 69 71 2.6 5.2 0.00 0.03 0.03 85 1014.1
20260904200228 69 90 2.6 5.2 0.00 0.03 0.03 85 1014.2
20260904195659 69 95 2.6 7.8 0.00 0.03 0.03 86 1014.1
20260904195525 69 110 1.7 9.6 0.00 0.03 0.03 90 1014.0
20260904195417 69 107 0.9 8.7 0.00 0.03 0.03 89 1014.1
20260904194158 68 110 3.5 10.4 0.00 0.03 0.03 91 1014.0
20260904193659 68 111 4.3 10.4 0.00 0.03 0.03 91 1014.0
20260904193157 68 89 5.2 10.4 0.00 0.03 0.03 92 1014.0
20260904192657 68 90 6.1 9.6 0.00 0.03 0.03 92 1014.0
20260904192155 68 102 5.2 9.6 0.00 0.03 0.03 92 1014.1
20260904191655 68 111 3.5 9.6 0.00 0.03 0.03 92 1014.2
20260904191156 68 103 4.3 9.6 0.00 0.03 0.03 92 1014.2
20260904190655 68 103 3.5 9.6 0.00 0.03 0.03 92 1014.2
20260904185635 68 103 4.3 8.7 0.00 0.03 0.03 92 1014.2
20260904185135 68 87 3.5 8.7 0.00 0.03 0.03 91 1014.2
20260904184636 68 118 3.5 8.7 0.00 0.03 0.03 91 1014.3
20260904184134 68 99 3.5 7.8 0.00 0.03 0.03 90 1014.3
20260904183637 68 113 4.3 7.8 0.00 0.03 0.03 90 1014.3
20260904183407 68 87 4.3 7.8 0.00 0.03 0.03 90 1014.3
20260904182635 68 92 2.6 5.2 0.00 0.03 0.03 90 1014.5
20260904182134 68 126 3.5 6.1 0.00 0.03 0.03 90 1014.5
20260904181634 67 95 1.7 6.1 0.00 0.03 0.03 90 1014.6
20260904181132 68 82 2.6 6.1 0.00 0.03 0.03 90 1014.7
20260904180906 68 145 2.6 6.1 0.00 0.03 0.03 90 1014.4
20260904175504 68 68 2.6 5.2 0.00 0.03 0.03 89 1014.5
20260904175007 68 99 2.6 6.1 0.00 0.03 0.03 89 1014.6
20260904174503 68 89 4.3 6.1 0.00 0.03 0.03 88 1014.6
20260904174005 69 110 2.6 6.1 0.00 0.03 0.03 88 1014.5
20260904173004 70 97 3.5 6.1 0.00 0.03 0.03 87 1014.4
20260904172502 70 121 2.6 8.7 0.00 0.03 0.03 88 1014.2
20260904172006 69 93 2.6 8.7 0.00 0.03 0.03 89 1014.1
20260904171503 68 85 4.3 8.7 0.00 0.03 0.03 89 1014.0
20260904171003 68 113 3.5 8.7 0.00 0.03 0.03 92 1014.1
20260904170502 67 69 4.3 8.7 0.00 0.03 0.03 92 1014.2
20260904170003 67 123 3.5 7.8 0.00 0.03 0.03 92 1014.3
20260904165503 67 103 3.5 7.8 0.00 0.03 0.03 92 1014.5
20260904165235 67 128 3.5 6.1 0.00 0.03 0.03 92 1014.5
20260904164507 67 86 2.6 5.2 0.00 0.03 0.03 92 1014.6
20260904164003 67 87 3.5 5.2 0.00 0.03 0.03 92 1014.7
20260904163504 67 63 1.7 5.2 0.00 0.03 0.03 92 1014.7
20260904163231 67 66 2.6 5.2 0.00 0.03 0.03 92 1014.7
20260904162502 67 61 2.6 4.3 0.00 0.03 0.03 93 1014.6
20260904162003 67 62 2.6 4.3 0.00 0.03 0.03 92 1014.7
20260904161503 67 90 2.6 4.3 0.00 0.03 0.03 92 1014.7
20260904161002 67 69 2.6 4.3 0.00 0.03 0.03 92 1014.8
20260904160502 67 79 2.6 4.3 0.00 0.03 0.03 92 1014.9
20260904160003 67 89 2.6 4.3 0.00 0.03 0.03 92 1014.8
20260904155502 67 66 2.6 4.3 0.00 0.03 0.03 92 1014.9
20260904155008 67 92 3.5 4.3 0.00 0.03 0.03 92 1015.1
20260904154502 67 72 3.5 6.1 0.00 0.03 0.03 92 1015.1
20260904154002 67 63 1.7 6.1 0.00 0.03 0.03 92 1015.1
20260904153501 67 48 3.5 6.1 0.00 0.03 0.03 90 1014.8
20260904153002 67 85 3.5 6.1 0.00 0.03 0.03 89 1015.2
20260904152733 68 65 1.7 3.5 0.00 0.03 0.03 89 1015.2
20260904152231 67 89 0.9 3.5 0.00 0.03 0.03 90 1015.1
20260904151502 67 148 0.9 3.5 0.00 0.03 0.03 90 1014.9
20260904151000 67 118 0.0 2.6 0.00 0.03 0.03 92 1014.9
20260904150729 67 166 0.9 1.7 0.00 0.03 0.03 92 1015.2
20260904150230 67 159 0.9 1.7 0.00 0.03 0.03 92 1015.2
20260904145500 67 257 0.0 1.7 0.00 0.03 0.03 93 1015.3
20260904145001 67 233 0.0 3.5 0.00 0.03 0.03 93 1015.2
20260904144500 66 259 0.9 3.5 0.00 0.03 0.03 94 1015.3
20260904144002 66 203 0.0 2.6 0.00 0.03 0.03 94 1015.3
20260904143601 66 204 1.7 3.5 0.00 0.03 0.03 95 1015.1
20260904143010 66 189 1.7 3.5 0.00 0.03 0.03 95 1015.1
20260904142502 66 224 1.7 3.5 0.00 0.03 0.03 96 1014.9
20260904141958 65 200 1.7 2.6 0.00 0.03 0.03 96 1014.9
20260904141515 65 204 0.9 1.7 0.00 0.03 0.03 96 1014.9
20260904140957 65 92 0.0 3.5 0.00 0.03 0.03 96 1014.8
20260904140458 65 164 0.9 3.5 0.00 0.03 0.03 96 1014.7
20260904135959 65 206 0.0 3.5 0.00 0.03 0.03 96 1014.5
20260904135454 65 186 0.9 3.5 0.00 0.03 0.03 97 1014.4
20260904135221 65 197 0.9 4.3 0.00 0.03 0.03 97 1014.6
20260904134455 64 154 2.6 4.3 0.00 0.03 0.03 97 1014.5
20260904134003 64 145 0.9 5.2 0.00 0.03 0.03 97 1014.2
20260904133455 64 151 1.7 5.2 0.00 0.03 0.03 97 1014.1
20260904133007 64 161 1.7 3.5 0.00 0.03 0.03 97 1014.1
20260904132454 64 157 1.7 3.5 0.00 0.03 0.03 97 1014.3
20260904131951 64 140 0.9 1.7 0.00 0.03 0.03 97 1014.3
20260904131714 64 92 0.0 0.9 0.00 0.03 0.03 97 1014.5
20260904130952 64 68 0.0 0.0 0.00 0.03 0.03 97 1014.5
20260904130451 64 63 0.0 2.6 0.00 0.03 0.03 97 1014.8
20260904125947 64 63 0.0 2.6 0.01 0.02 0.03 97 1014.6
20260904125447 64 66 1.7 2.6 0.01 0.02 0.03 97 1014.2
20260904124943 63 158 0.0 2.6 0.02 0.02 0.03 97 1014.1
20260904124446 63 178 0.9 2.6 0.03 0.02 0.03 97 1014.1
20260904123945 63 168 0.9 2.6 0.03 0.02 0.03 97 1014.1
20260904123443 63 178 0.0 1.7 0.03 0.02 0.03 97 1013.9
20260904122943 62 175 0.0 1.7 0.03 0.02 0.03 97 1014.0
20260904122442 62 210 0.9 1.7 0.03 0.02 0.03 97 1014.1
20260904122213 62 210 0.0 2.6 0.03 0.02 0.03 97 1014.1
20260904120942 61 188 1.7 3.5 0.03 0.02 0.03 96 1014.2
20260904120440 62 175 2.6 3.5 0.03 0.02 0.03 96 1014.4
20260904115942 62 212 0.0 2.6 0.02 0.00 0.02 96 1014.7
20260904115441 61 251 1.7 2.6 0.02 0.00 0.02 97 1014.8
20260904114941 61 264 1.7 3.5 0.01 0.00 0.00 97 1014.6
20260904114440 61 264 1.7 3.5 0.00 0.00 0.00 97 1014.7
20260904113940 61 285 1.7 3.5 0.00 0.00 0.00 97 1014.7
20260904113441 61 282 0.9 2.6 0.00 0.00 0.00 97 1014.6
20260904112941 60 310 0.9 1.7 0.00 0.00 0.00 97 1014.4
20260904112441 60 282 0.9 1.7 0.00 0.00 0.00 97 1014.2
20260904111941 60 303 0.0 1.7 0.00 0.00 0.00 97 1014.2
20260904111436 59 307 0.9 1.7 0.00 0.00 0.00 97 1014.2
20260904110936 59 302 0.9 1.7 0.00 0.00 0.00 97 1014.2
20260904105934 58 285 0.0 0.9 0.00 0.00 0.00 96 1014.1
20260904105434 58 286 0.0 0.9 0.00 0.00 0.00 96 1014.1
20260904104934 58 248 0.0 0.0 0.00 0.00 0.00 96 1013.8
20260904104435 58 248 0.0 0.9 0.00 0.00 0.00 96 1013.7
20260904103934 58 248 0.0 1.7 0.00 0.00 0.00 96 1013.8
20260904103434 58 247 0.9 1.7 0.00 0.00 0.00 96 1013.8
20260904102933 58 247 0.9 2.6 0.00 0.00 0.00 96 1013.9
20260904102433 58 250 0.9 2.6 0.00 0.00 0.00 96 1013.9
20260904101933 58 245 0.9 2.6 0.00 0.00 0.00 96 1014.1
20260904101433 58 257 0.9 2.6 0.00 0.00 0.00 96 1014.0
20260904101205 58 250 0.9 1.7 0.00 0.00 0.00 96 1013.8
20260904100432 58 257 0.9 1.7 0.00 0.00 0.00 96 1013.9
20260904095931 58 261 0.9 1.7 0.00 0.00 0.00 96 1013.9
20260904095431 58 258 0.9 1.7 0.00 0.00 0.00 96 1013.7
20260904094932 58 251 0.9 2.6 0.00 0.00 0.00 95 1013.8
20260904094430 58 262 1.7 2.6 0.00 0.00 0.00 95 1013.7
20260904093931 58 243 0.0 1.7 0.00 0.00 0.00 95 1013.4
20260904093430 58 248 0.0 1.7 0.00 0.00 0.00 95 1013.6
20260904093204 58 250 0.9 2.6 0.00 0.00 0.00 95 1013.8
20260904092431 58 267 0.9 2.6 0.00 0.00 0.00 95 1013.7
20260904091930 58 261 1.7 2.6 0.00 0.00 0.00 95 1013.7
20260904091431 58 262 0.0 1.7 0.00 0.00 0.00 95 1013.4
20260904090931 58 265 0.0 1.7 0.00 0.00 0.00 95 1013.6
20260904090430 58 262 0.9 1.7 0.00 0.00 0.00 95 1013.7
20260904085931 58 272 0.9 1.7 0.00 0.00 0.00 95 1013.5
20260904085431 58 259 0.9 1.7 0.00 0.00 0.00 95 1013.3
20260904084930 58 264 0.0 1.7 0.00 0.00 0.00 95 1013.3
20260904084433 58 264 0.9 1.7 0.00 0.00 0.00 95 1013.3
20260904083931 58 264 0.0 0.9 0.00 0.00 0.00 95 1013.3
20260904083431 58 265 0.9 1.7 0.00 0.00 0.00 95 1013.6
20260904082930 58 257 0.9 1.7 0.00 0.00 0.00 95 1013.6
20260904082657 58 259 0.9 1.7 0.00 0.00 0.00 95 1013.5
20260904081929 59 258 0.0 0.9 0.00 0.00 0.00 94 1013.4
20260904081428 59 258 0.0 0.9 0.00 0.00 0.00 94 1013.3
20260904081152 59 261 0.0 0.9 0.00 0.00 0.00 94 1013.5
20260904080428 59 262 0.9 0.9 0.00 0.00 0.00 94 1013.5
20260904075928 59 272 0.0 1.7 0.00 0.00 0.00 94 1013.7
20260904075425 59 272 0.9 1.7 0.00 0.00 0.00 94 1013.9
20260904074926 59 274 0.9 1.7 0.00 0.00 0.00 94 1014.0
20260904074424 60 251 0.9 0.9 0.00 0.00 0.00 94 1013.7
20260904073926 60 251 0.0 0.9 0.00 0.00 0.00 93 1013.4
20260904073427 60 248 0.0 0.9 0.00 0.00 0.00 93 1013.3
20260904072925 60 276 0.0 0.9 0.00 0.00 0.00 93 1013.4
20260904072421 60 276 0.9 0.9 0.00 0.00 0.00 93 1013.5
20260904071921 60 289 0.0 0.9 0.00 0.00 0.00 93 1013.3
20260904071420 61 289 0.0 0.9 0.00 0.00 0.00 93 1013.4
20260904070919 61 21 0.0 0.0 0.00 0.00 0.00 93 1013.4
20260904070420 61 25 0.0 0.0 0.00 0.00 0.00 93 1013.5
20260904065918 61 303 0.0 0.0 0.00 0.00 0.00 93 1013.5
20260904065644 62 286 0.0 0.9 0.00 0.00 0.00 93 1013.7
20260904065137 62 286 0.0 0.9 0.00 0.00 0.00 93 1013.8
20260904064413 62 48 0.0 2.6 0.00 0.00 0.00 93 1013.8
20260904063913 62 52 0.9 2.6 0.00 0.00 0.00 93 1014.0
20260904063414 61 51 0.9 2.6 0.00 0.00 0.00 93 1014.0
20260904063141 61 37 1.7 2.6 0.00 0.00 0.00 93 1014.1
20260904062413 61 1 0.9 1.7 0.00 0.00 0.00 92 1014.1
20260904061136 62 236 1.7 2.6 0.00 0.00 0.00 92 1013.8
20260904060407 62 250 1.7 2.6 0.00 0.00 0.00 92 1014.0
20260904055906 62 220 0.9 3.5 0.00 0.00 0.00 92 1014.1
20260904055407 62 237 0.9 3.5 0.00 0.00 0.00 92 1014.0
20260904054904 62 255 0.9 2.6 0.00 0.00 0.00 92 1014.2
20260904054635 62 254 1.7 2.6 0.00 0.00 0.00 92 1014.1
20260904053905 62 261 1.7 3.5 0.00 0.00 0.00 92 1014.2
20260904053406 62 262 1.7 3.5 0.00 0.00 0.00 91 1014.2
20260904052911 62 254 1.7 2.6 0.00 0.00 0.00 91 1014.1
20260904052406 62 259 0.9 2.6 0.00 0.00 0.00 91 1014.1
20260904051903 62 237 0.9 2.6 0.00 0.00 0.00 91 1014.2
20260904051403 62 271 1.7 3.5 0.00 0.00 0.00 91 1014.3
20260904050903 62 247 1.7 3.5 0.00 0.00 0.00 91 1014.2
20260904050403 62 237 1.7 3.5 0.00 0.00 0.00 90 1014.2
20260904045906 62 243 0.9 3.5 0.00 0.00 0.00 90 1014.3
20260904045404 63 248 1.7 3.5 0.00 0.00 0.00 90 1014.3
20260904044902 63 262 1.7 3.5 0.00 0.00 0.00 90 1014.3
20260904044403 63 259 1.7 2.6 0.00 0.00 0.00 90 1014.3
20260904043902 63 259 1.7 2.6 0.00 0.00 0.00 89 1014.2
20260904043640 63 259 1.7 2.6 0.00 0.00 0.00 89 1014.1
20260904042901 63 251 1.7 3.5 0.00 0.00 0.00 89 1014.1
20260904042635 63 257 1.7 3.5 0.00 0.00 0.00 89 1014.0
20260904042127 63 257 0.9 3.5 0.00 0.00 0.00 89 1014.0
20260904041405 63 251 1.7 4.3 0.00 0.00 0.00 89 1014.1
20260904040902 63 267 2.6 4.3 0.00 0.00 0.00 88 1014.1
20260904040405 63 252 1.7 3.5 0.00 0.00 0.00 88 1014.0
20260904040127 64 252 1.7 3.5 0.00 0.00 0.00 88 1014.0
20260904035402 64 255 1.7 4.3 0.00 0.00 0.00 88 1014.0
20260904035132 63 252 2.6 4.3 0.00 0.00 0.00 87 1014.1
20260904034404 63 245 1.7 4.3 0.00 0.00 0.00 87 1013.9
20260904033857 63 264 1.7 3.5 0.00 0.00 0.00 86 1014.0
20260904033355 63 250 2.6 4.3 0.00 0.00 0.00 86 1013.9
20260904032854 63 240 2.6 4.3 0.00 0.00 0.00 84 1013.9
20260904032356 63 248 1.7 3.5 0.00 0.00 0.00 83 1014.0
20260904032123 63 257 1.7 3.5 0.00 0.00 0.00 83 1014.0
20260904031626 63 240 1.7 3.5 0.00 0.00 0.00 82 1013.9
20260904030854 63 245 1.7 3.5 0.00 0.00 0.00 82 1013.9
20260904030627 63 250 1.7 4.3 0.00 0.00 0.00 81 1013.8
20260904025854 63 247 1.7 4.3 0.00 0.00 0.00 81 1013.9
20260904025619 63 244 1.7 4.3 0.00 0.00 0.00 81 1013.7
20260904024852 63 252 1.7 3.5 0.00 0.00 0.00 81 1013.9
20260904024352 63 237 1.7 3.5 0.00 0.00 0.00 81 1013.8
20260904023851 63 245 1.7 4.3 0.00 0.00 0.00 81 1014.0
20260904023349 63 240 2.6 4.3 0.00 0.00 0.00 81 1014.0
20260904022848 63 226 2.6 3.5 0.00 0.00 0.00 81 1014.0
20260904022349 63 254 1.7 3.5 0.00 0.00 0.00 81 1013.9
20260904021848 64 255 1.7 3.5 0.00 0.00 0.00 81 1013.9
20260904021348 64 250 1.7 3.5 0.00 0.00 0.00 81 1014.0
20260904020848 64 240 1.7 2.6 0.00 0.00 0.00 81 1013.8
20260904020347 64 241 1.7 3.5 0.00 0.00 0.00 81 1013.8
20260904015849 64 248 1.7 3.5 0.00 0.00 0.00 81 1013.6
20260904015345 64 250 1.7 3.5 0.00 0.00 0.00 81 1013.5
20260904014844 64 252 1.7 2.6 0.00 0.00 0.00 81 1013.5
20260904014344 64 259 1.7 2.6 0.00 0.00 0.00 82 1013.4
20260904013844 64 254 1.7 3.5 0.00 0.00 0.00 82 1013.4
20260904013343 64 252 1.7 3.5 0.00 0.00 0.00 83 1013.5
20260904013111 64 252 1.7 2.6 0.00 0.00 0.00 83 1013.5
20260904012344 64 250 1.7 2.6 0.00 0.00 0.00 83 1013.5
20260904011843 65 252 1.7 2.6 0.00 0.00 0.00 83 1013.4
20260904011344 65 248 0.9 2.6 0.00 0.00 0.00 83 1013.5
20260904010842 65 244 0.9 1.7 0.00 0.00 0.00 83 1013.4
20260904010343 65 233 0.9 1.7 0.00 0.00 0.00 82 1013.4
20260904005843 65 236 0.0 1.7 0.00 0.00 0.00 81 1013.4
20260904005343 66 238 0.9 1.7 0.00 0.00 0.00 81 1013.4
20260904004842 66 247 0.0 1.7 0.00 0.00 0.00 80 1013.3
20260904004342 66 250 0.9 1.7 0.00 0.00 0.00 80 1013.2
20260904003842 66 251 0.9 1.7 0.00 0.00 0.00 80 1013.1
20260904003343 67 250 0.9 1.7 0.00 0.00 0.00 79 1013.1
20260904002842 67 248 0.0 0.0 0.00 0.00 0.00 78 1013.1
20260904002341 67 254 0.0 0.0 0.00 0.00 0.00 77 1013.0
20260904001841 68 257 0.0 1.7 0.00 0.00 0.00 77 1013.0
20260904001342 68 257 0.9 1.7 0.00 0.00 0.00 76 1013.1
20260904000841 68 248 0.9 1.7 0.00 0.00 0.00 76 1013.1
20260903235842 69 76 0.0 0.9 0.00 0.00 0.00 75 1013.0
20260903235621 69 71 0.0 0.0 0.00 0.00 0.00 74 1012.9
20260903234844 69 69 0.0 0.0 0.00 0.00 0.00 73 1012.8
20260903234341 69 72 0.0 0.0 0.00 0.00 0.00 72 1012.7
20260903234105 70 69 0.0 0.0 0.00 0.00 0.00 72 1012.8
20260903233340 70 71 0.0 0.0 0.00 0.00 0.00 72 1012.7
20260903232841 70 71 0.0 0.9 0.00 0.00 0.00 72 1012.5
20260903232340 70 71 0.0 1.7 0.00 0.00 0.00 72 1012.4
20260903231340 70 80 0.0 3.5 0.00 0.00 0.00 73 1012.3
20260903230841 70 47 0.9 3.5 0.00 0.00 0.00 73 1012.1
20260903230340 70 66 0.0 1.7 0.00 0.00 0.00 74 1012.1
20260903225840 70 73 0.0 1.7 0.00 0.00 0.00 74 1012.1
20260903225339 70 75 0.0 1.7 0.00 0.00 0.00 73 1012.1
20260903224338 71 61 1.7 2.6 0.00 0.00 0.00 74 1011.9
20260903224108 71 63 0.9 3.5 0.00 0.00 0.00 75 1011.8
20260903223338 71 76 0.9 3.5 0.00 0.00 0.00 73 1011.9
20260903222841 70 89 0.9 2.6 0.00 0.00 0.00 73 1011.8
20260903222339 70 86 0.9 2.6 0.00 0.00 0.00 74 1011.7
20260903221838 71 68 1.7 3.5 0.00 0.00 0.00 74 1011.9
20260903221338 71 45 1.7 3.5 0.00 0.00 0.00 74 1011.8
20260903220837 71 61 1.7 4.3 0.00 0.00 0.00 76 1011.8